Time,TemperatureF,DewpointF,PressureIn,WindDirection,WindDirectionDegrees,WindSpeedMPH,WindSpeedGustMPH,Humidity,HourlyPrecipIn,Conditions,Clouds,dailyrainin,SolarRadiationWatts/m^2,SoftwareType,DateUTC
2013-02-07 00:00:00,25.7,18.2,30.31,SE,130,4.0,6.0,73,0.00,,,0.24,0,Wunderground v.1.15,2013-02-07 05:00:00,
2013-02-07 00:05:00,25.7,18.2,30.31,SSE,147,5.0,5.0,73,0.00,,,0.00,0,Wunderground v.1.15,2013-02-07 05:05:00,
2013-02-07 00:10:00,25.7,17.9,30.32,SSE,153,4.0,5.0,72,0.00,,,0.00,0,Wunderground v.1.15,2013-02-07 05:10:00,
2013-02-07 00:15:00,25.6,18.1,30.33,SSE,153,3.0,3.0,73,0.00,,,0.00,0,Wunderground v.1.15,2013-02-07 05:15:00,
2013-02-07 00:20:00,25.6,18.1,30.33,SSE,161,2.0,4.0,73,0.00,,,0.00,0,Wunderground v.1.15,2013-02-07 05:20:00,
2013-02-07 00:25:00,25.7,18.6,30.33,SSE,161,3.0,3.0,74,0.00,,,0.00,0,Wunderground v.1.15,2013-02-07 05:25:00,
2013-02-07 00:30:00,25.7,18.6,30.34,SSE,162,3.0,5.0,74,0.00,,,0.00,0,Wunderground v.1.15,2013-02-07 05:30:00,
2013-02-07 00:35:00,25.8,19.0,30.34,SE,134,3.0,8.0,75,0.00,,,0.00,0,Wunderground v.1.15,2013-02-07 05:35:00,
2013-02-07 00:40:00,25.8,19.3,30.34,SE,139,3.0,8.0,76,0.00,,,0.00,0,Wunderground v.1.15,2013-02-07 05:40:00,
2013-02-07 00:45:00,25.8,19.3,30.34,SE,139,1.0,8.0,76,0.00,,,0.00,0,Wunderground v.1.15,2013-02-07 05:45:00,
2013-02-07 00:55:00,25.7,19.5,30.34,SE,142,2.0,4.0,77,0.00,,,0.00,0,Wunderground v.1.15,2013-02-07 05:55:00,
2013-02-07 01:05:00,25.7,19.8,30.34,SE,137,4.0,4.0,78,0.00,,,0.00,0,Wunderground v.1.15,2013-02-07 06:05:00,
2013-02-07 01:10:00,25.7,19.8,30.34,SSE,150,4.0,4.0,78,0.00,,,0.00,0,Wunderground v.1.15,2013-02-07 06:10:00,
2013-02-07 01:20:00,25.7,20.1,30.33,SE,138,5.0,5.0,79,0.00,,,0.00,0,Wunderground v.1.15,2013-02-07 06:20:00,
2013-02-07 01:25:00,25.7,20.1,30.33,SSE,150,5.0,5.0,79,0.00,,,0.00,0,Wunderground v.1.15,2013-02-07 06:25:00,
2013-02-07 01:30:00,25.7,20.1,30.33,SSE,152,3.0,7.0,79,0.00,,,0.00,0,Wunderground v.1.15,2013-02-07 06:30:00,
2013-02-07 01:35:00,25.7,20.4,30.33,SSE,152,2.0,7.0,80,0.00,,,0.00,0,Wunderground v.1.15,2013-02-07 06:35:00,
2013-02-07 01:40:00,25.7,20.4,30.32,SE,129,2.0,7.0,80,0.00,,,0.00,0,Wunderground v.1.15,2013-02-07 06:40:00,
2013-02-07 01:45:00,25.8,20.5,30.32,SSE,147,5.0,7.0,80,0.00,,,0.00,0,Wunderground v.1.15,2013-02-07 06:45:00,
2013-02-07 01:55:00,25.8,20.8,30.32,SE,132,6.0,6.0,81,0.00,,,0.00,0,Wunderground v.1.15,2013-02-07 06:55:00,
2013-02-07 02:05:00,25.8,20.8,30.32,ESE,111,4.0,4.0,81,0.00,,,0.00,0,Wunderground v.1.15,2013-02-07 07:05:00,
2013-02-07 02:10:00,25.8,21.1,30.33,SSE,167,3.0,5.0,82,0.00,,,0.00,0,Wunderground v.1.15,2013-02-07 07:10:00,
2013-02-07 02:15:00,25.8,21.1,30.33,ESE,123,3.0,6.0,82,0.00,,,0.00,0,Wunderground v.1.15,2013-02-07 07:15:00,
2013-02-07 02:25:00,25.8,21.3,30.33,ESE,123,5.0,6.0,83,0.00,,,0.00,0,Wunderground v.1.15,2013-02-07 07:25:00,
2013-02-07 02:35:00,25.9,21.4,30.33,SSE,167,6.0,6.0,83,0.00,,,0.00,0,Wunderground v.1.15,2013-02-07 07:35:00,
2013-02-07 02:40:00,25.9,21.7,30.32,SSE,154,8.0,8.0,84,0.00,,,0.00,0,Wunderground v.1.15,2013-02-07 07:40:00,
2013-02-07 02:45:00,26.0,21.8,30.32,SE,137,7.0,7.0,84,0.00,,,0.00,0,Wunderground v.1.15,2013-02-07 07:45:00,
2013-02-07 02:50:00,26.0,21.8,30.31,SE,141,6.0,8.0,84,0.00,,,0.00,0,Wunderground v.1.15,2013-02-07 07:50:00,
2013-02-07 02:55:00,26.0,21.8,30.31,SSE,149,6.0,7.0,84,0.00,,,0.00,0,Wunderground v.1.15,2013-02-07 07:55:00,
2013-02-07 03:05:00,26.0,21.8,30.32,SE,138,8.0,8.0,84,0.00,,,0.00,0,Wunderground v.1.15,2013-02-07 08:05:00,
2013-02-07 03:10:00,26.0,21.8,30.31,SE,132,8.0,11.0,84,0.00,,,0.00,0,Wunderground v.1.15,2013-02-07 08:10:00,
2013-02-07 03:15:00,26.0,21.8,30.31,SE,134,7.0,7.0,84,0.00,,,0.00,0,Wunderground v.1.15,2013-02-07 08:15:00,
2013-02-07 03:20:00,26.0,21.5,30.31,ESE,113,7.0,7.0,83,0.00,,,0.00,0,Wunderground v.1.15,2013-02-07 08:20:00,
2013-02-07 03:25:00,26.1,21.9,30.31,SE,141,7.0,9.0,84,0.00,,,0.00,0,Wunderground v.1.15,2013-02-07 08:25:00,
2013-02-07 03:30:00,26.1,21.6,30.32,SSE,161,7.0,9.0,83,0.00,,,0.00,0,Wunderground v.1.15,2013-02-07 08:30:00,
2013-02-07 03:40:00,26.1,21.6,30.31,SSE,153,6.0,9.0,83,0.00,,,0.00,0,Wunderground v.1.15,2013-02-07 08:40:00,
2013-02-07 03:45:00,26.1,21.6,30.32,SE,137,5.0,5.0,83,0.00,,,0.00,0,Wunderground v.1.15,2013-02-07 08:45:00,
2013-02-07 03:50:00,26.1,21.6,30.32,ESE,123,3.0,9.0,83,0.00,,,0.00,0,Wunderground v.1.15,2013-02-07 08:50:00,
2013-02-07 03:55:00,26.2,21.5,30.31,SSE,156,3.0,8.0,82,0.00,,,0.00,0,Wunderground v.1.15,2013-02-07 08:55:00,
2013-02-07 04:05:00,26.2,21.5,30.31,SE,132,2.0,2.0,82,0.00,,,0.00,0,Wunderground v.1.15,2013-02-07 09:05:00,
2013-02-07 04:10:00,26.1,21.4,30.31,ESE,111,1.0,2.0,82,0.00,,,0.00,0,Wunderground v.1.15,2013-02-07 09:10:00,
2013-02-07 04:15:00,26.1,21.4,30.31,ESE,103,2.0,2.0,82,0.00,,,0.00,0,Wunderground v.1.15,2013-02-07 09:15:00,
2013-02-07 04:20:00,26.1,21.4,30.31,ESE,102,2.0,2.0,82,0.00,,,0.00,0,Wunderground v.1.15,2013-02-07 09:20:00,
2013-02-07 04:25:00,26.1,21.4,30.31,ESE,102,1.0,1.0,82,0.00,,,0.00,0,Wunderground v.1.15,2013-02-07 09:25:00,
2013-02-07 04:35:00,26.0,21.3,30.30,ENE,72,1.0,1.0,82,0.00,,,0.00,0,Wunderground v.1.15,2013-02-07 09:35:00,
2013-02-07 04:40:00,26.0,21.0,30.30,East,97,2.0,2.0,81,0.00,,,0.00,0,Wunderground v.1.15,2013-02-07 09:40:00,
2013-02-07 04:50:00,26.0,21.3,30.30,ENE,59,3.0,6.0,82,0.00,,,0.00,0,Wunderground v.1.15,2013-02-07 09:50:00,
2013-02-07 04:55:00,26.0,21.3,30.30,ENE,74,3.0,4.0,82,0.00,,,0.00,0,Wunderground v.1.15,2013-02-07 09:55:00,
2013-02-07 05:05:00,26.1,21.1,30.30,ENE,63,4.0,5.0,81,0.00,,,0.00,0,Wunderground v.1.15,2013-02-07 10:05:00,
2013-02-07 05:15:00,26.1,21.1,30.30,SE,136,4.0,6.0,81,0.00,,,0.00,0,Wunderground v.1.15,2013-02-07 10:15:00,
2013-02-07 05:20:00,26.1,20.8,30.29,ESE,110,4.0,6.0,80,0.00,,,0.00,0,Wunderground v.1.15,2013-02-07 10:20:00,
2013-02-07 05:25:00,26.1,20.8,30.29,SE,136,4.0,7.0,80,0.00,,,0.00,0,Wunderground v.1.15,2013-02-07 10:25:00,
2013-02-07 05:30:00,26.2,20.9,30.29,ESE,117,5.0,7.0,80,0.00,,,0.00,0,Wunderground v.1.15,2013-02-07 10:30:00,
2013-02-07 05:35:00,26.2,20.9,30.29,ESE,123,6.0,7.0,80,0.00,,,0.00,0,Wunderground v.1.15,2013-02-07 10:35:00,
2013-02-07 05:45:00,26.3,21.0,30.30,ESE,117,6.0,6.0,80,0.00,,,0.00,0,Wunderground v.1.15,2013-02-07 10:45:00,
2013-02-07 05:50:00,26.3,21.0,30.30,SSE,148,7.0,11.0,80,0.00,,,0.00,0,Wunderground v.1.15,2013-02-07 10:50:00,
2013-02-07 05:55:00,26.3,21.3,30.29,SE,128,8.0,8.0,81,0.00,,,0.00,0,Wunderground v.1.15,2013-02-07 10:55:00,
2013-02-07 06:05:00,26.2,21.2,30.29,SSE,151,7.0,7.0,81,0.00,,,0.00,0,Wunderground v.1.15,2013-02-07 11:05:00,
2013-02-07 06:10:00,26.3,21.3,30.28,SE,132,8.0,8.0,81,0.00,,,0.00,0,Wunderground v.1.15,2013-02-07 11:10:00,
2013-02-07 06:20:00,26.3,21.3,30.28,SE,142,7.0,8.0,81,0.00,,,0.00,0,Wunderground v.1.15,2013-02-07 11:20:00,
2013-02-07 06:30:00,26.3,21.3,30.27,SE,143,7.0,11.0,81,0.00,,,0.00,0,Wunderground v.1.15,2013-02-07 11:30:00,
2013-02-07 06:40:00,26.5,21.5,30.27,SSE,151,6.0,11.0,81,0.00,,,0.00,0,Wunderground v.1.15,2013-02-07 11:40:00,
2013-02-07 06:50:00,26.8,21.5,30.27,SE,141,7.0,11.0,80,0.00,,,0.00,0,Wunderground v.1.15,2013-02-07 11:50:00,
2013-02-07 06:55:00,27.0,21.7,30.28,ESE,122,6.0,7.0,80,0.00,,,0.00,0,Wunderground v.1.15,2013-02-07 11:55:00,
2013-02-07 07:05:00,27.2,21.5,30.27,SE,138,7.0,7.0,79,0.00,,,0.00,0,Wunderground v.1.15,2013-02-07 12:05:00,
2013-02-07 07:10:00,27.4,21.7,30.27,SSE,159,6.0,7.0,79,0.00,,,0.00,0,Wunderground v.1.15,2013-02-07 12:10:00,
2013-02-07 07:20:00,27.6,21.9,30.27,SSE,155,6.0,6.0,79,0.00,,,0.00,0,Wunderground v.1.15,2013-02-07 12:20:00,
2013-02-07 07:25:00,27.6,21.9,30.26,SE,144,6.0,6.0,79,0.00,,,0.00,0,Wunderground v.1.15,2013-02-07 12:25:00,
2013-02-07 07:30:00,27.7,22.0,30.26,SE,137,7.0,7.0,79,0.00,,,0.00,0,Wunderground v.1.15,2013-02-07 12:30:00,
2013-02-07 07:35:00,27.7,22.0,30.27,SSE,152,7.0,12.0,79,0.00,,,0.00,0,Wunderground v.1.15,2013-02-07 12:35:00,
2013-02-07 07:40:00,27.8,22.1,30.26,SSE,167,6.0,12.0,79,0.00,,,0.00,0,Wunderground v.1.15,2013-02-07 12:40:00,
2013-02-07 07:45:00,27.8,22.1,30.26,SE,126,6.0,6.0,79,0.00,,,0.00,0,Wunderground v.1.15,2013-02-07 12:45:00,
2013-02-07 07:50:00,27.9,22.2,30.26,SE,144,6.0,8.0,79,0.00,,,0.00,9,Wunderground v.1.15,2013-02-07 12:50:00,
2013-02-07 07:55:00,27.9,22.5,30.26,SSE,157,7.0,9.0,80,0.00,,,0.00,11,Wunderground v.1.15,2013-02-07 12:55:00,
2013-02-07 08:05:00,28.0,22.6,30.26,South,171,8.0,8.0,80,0.00,,,0.00,18,Wunderground v.1.15,2013-02-07 13:05:00,
2013-02-07 08:10:00,28.0,22.6,30.26,SE,141,7.0,8.0,80,0.00,,,0.00,19,Wunderground v.1.15,2013-02-07 13:10:00,
2013-02-07 08:15:00,28.0,22.9,30.26,SE,144,6.0,6.0,81,0.00,,,0.00,19,Wunderground v.1.15,2013-02-07 13:15:00,
2013-02-07 08:25:00,28.0,22.9,30.26,SSE,157,6.0,6.0,81,0.00,,,0.00,30,Wunderground v.1.15,2013-02-07 13:25:00,
2013-02-07 08:30:00,28.0,23.2,30.25,SE,137,6.0,11.0,82,0.00,,,0.00,35,Wunderground v.1.15,2013-02-07 13:30:00,
2013-02-07 08:35:00,28.0,23.2,30.25,SE,132,6.0,6.0,82,0.00,,,0.00,39,Wunderground v.1.15,2013-02-07 13:35:00,
2013-02-07 08:40:00,28.0,23.2,30.25,SE,138,7.0,7.0,82,0.00,,,0.00,35,Wunderground v.1.15,2013-02-07 13:40:00,
2013-02-07 08:45:00,28.0,23.5,30.25,ESE,117,7.0,7.0,83,0.00,,,0.00,37,Wunderground v.1.15,2013-02-07 13:45:00,
2013-02-07 08:50:00,28.1,23.6,30.25,SE,124,6.0,11.0,83,0.00,,,0.00,42,Wunderground v.1.15,2013-02-07 13:50:00,
2013-02-07 08:55:00,28.2,23.7,30.25,ESE,123,5.0,5.0,83,0.00,,,0.00,51,Wunderground v.1.15,2013-02-07 13:55:00,
2013-02-07 09:05:00,28.4,23.9,30.25,SE,126,6.0,6.0,83,0.00,,,0.00,63,Wunderground v.1.15,2013-02-07 14:05:00,
2013-02-07 09:10:00,28.5,24.0,30.25,SE,146,6.0,6.0,83,0.00,,,0.00,65,Wunderground v.1.15,2013-02-07 14:10:00,
2013-02-07 09:15:00,28.5,24.0,30.25,SSE,161,5.0,5.0,83,0.00,,,0.00,77,Wunderground v.1.15,2013-02-07 14:15:00,
2013-02-07 09:20:00,28.6,24.1,30.25,SSE,158,5.0,5.0,83,0.00,,,0.00,79,Wunderground v.1.15,2013-02-07 14:20:00,
2013-02-07 09:25:00,28.7,24.2,30.25,SSE,159,5.0,5.0,83,0.00,,,0.00,81,Wunderground v.1.15,2013-02-07 14:25:00,
2013-02-07 09:35:00,28.9,24.4,30.25,SE,140,5.0,13.0,83,0.00,,,0.00,97,Wunderground v.1.15,2013-02-07 14:35:00,
2013-02-07 09:40:00,29.1,24.3,30.25,SE,141,5.0,13.0,82,0.00,,,0.00,113,Wunderground v.1.15,2013-02-07 14:40:00,
2013-02-07 09:45:00,29.2,24.4,30.24,SE,142,6.0,6.0,82,0.00,,,0.00,104,Wunderground v.1.15,2013-02-07 14:45:00,
2013-02-07 09:50:00,29.4,24.6,30.24,ESE,123,7.0,7.0,82,0.00,,,0.00,109,Wunderground v.1.15,2013-02-07 14:50:00,
2013-02-07 09:55:00,29.6,24.8,30.23,SE,137,7.0,7.0,82,0.00,,,0.00,118,Wunderground v.1.15,2013-02-07 14:55:00,
2013-02-07 10:05:00,29.8,25.0,30.24,SE,138,6.0,6.0,82,0.00,,,0.00,141,Wunderground v.1.15,2013-02-07 15:05:00,
2013-02-07 10:10:00,29.9,24.8,30.23,SE,140,6.0,6.0,81,0.00,,,0.00,125,Wunderground v.1.15,2013-02-07 15:10:00,
2013-02-07 10:15:00,30.0,24.9,30.23,SE,129,5.0,6.0,81,0.00,,,0.00,134,Wunderground v.1.15,2013-02-07 15:15:00,
2013-02-07 10:20:00,30.1,25.0,30.23,SE,126,6.0,6.0,81,0.00,,,0.00,176,Wunderground v.1.15,2013-02-07 15:20:00,
2013-02-07 10:25:00,30.3,25.2,30.22,ESE,119,5.0,5.0,81,0.00,,,0.00,192,Wunderground v.1.15,2013-02-07 15:25:00,
2013-02-07 10:30:00,30.4,25.3,30.22,ESE,120,5.0,6.0,81,0.00,,,0.00,151,Wunderground v.1.15,2013-02-07 15:30:00,
2013-02-07 10:35:00,30.5,25.4,30.22,ESE,113,5.0,11.0,81,0.00,,,0.00,162,Wunderground v.1.15,2013-02-07 15:35:00,
2013-02-07 10:40:00,30.6,25.2,30.22,SE,131,6.0,11.0,80,0.00,,,0.00,162,Wunderground v.1.15,2013-02-07 15:40:00,
2013-02-07 10:50:00,30.8,25.4,30.22,SE,140,5.0,11.0,80,0.00,,,0.00,193,Wunderground v.1.15,2013-02-07 15:50:00,
2013-02-07 10:55:00,31.0,25.6,30.22,ESE,117,5.0,5.0,80,0.00,,,0.00,216,Wunderground v.1.15,2013-02-07 15:55:00,
2013-02-07 11:05:00,31.4,25.9,30.22,SE,146,4.0,4.0,80,0.00,,,0.00,272,Wunderground v.1.15,2013-02-07 16:05:00,
2013-02-07 11:10:00,31.6,25.8,30.22,East,98,4.0,4.0,79,0.00,,,0.00,281,Wunderground v.1.15,2013-02-07 16:10:00,
2013-02-07 11:15:00,31.7,25.9,30.22,ESE,114,5.0,6.0,79,0.00,,,0.00,366,Wunderground v.1.15,2013-02-07 16:15:00,
2013-02-07 11:20:00,31.9,26.1,30.22,ESE,115,5.0,6.0,79,0.00,,,0.00,367,Wunderground v.1.15,2013-02-07 16:20:00,
2013-02-07 11:25:00,32.2,26.4,30.21,East,90,4.0,4.0,79,0.00,,,0.00,355,Wunderground v.1.15,2013-02-07 16:25:00,
2013-02-07 11:35:00,32.6,26.2,30.21,SE,134,5.0,9.0,77,0.00,,,0.00,378,Wunderground v.1.15,2013-02-07 16:35:00,
2013-02-07 11:40:00,32.9,26.8,30.21,SE,139,5.0,9.0,78,0.00,,,0.00,359,Wunderground v.1.15,2013-02-07 16:40:00,
2013-02-07 11:45:00,33.0,26.6,30.21,East,90,4.0,4.0,77,0.00,,,0.00,315,Wunderground v.1.15,2013-02-07 16:45:00,
2013-02-07 11:50:00,33.2,26.8,30.21,ESE,103,3.0,9.0,77,0.00,,,0.00,279,Wunderground v.1.15,2013-02-07 16:50:00,
2013-02-07 11:55:00,33.3,26.9,30.20,ESE,117,4.0,7.0,77,0.00,,,0.00,290,Wunderground v.1.15,2013-02-07 16:55:00,
2013-02-07 12:05:00,33.5,27.1,30.19,ESE,113,6.0,7.0,77,0.00,,,0.00,329,Wunderground v.1.15,2013-02-07 17:05:00,
2013-02-07 12:10:00,33.7,26.9,30.19,ENE,77,5.0,7.0,76,0.00,,,0.00,350,Wunderground v.1.15,2013-02-07 17:10:00,
2013-02-07 12:20:00,34.4,27.6,30.19,East,89,3.0,5.0,76,0.00,,,0.01,306,Wunderground v.1.15,2013-02-07 17:20:00,
2013-02-07 12:30:00,35.1,28.0,30.17,ENE,59,2.0,9.0,75,0.00,,,0.01,536,Wunderground v.1.15,2013-02-07 17:30:00,
2013-02-07 12:40:00,34.9,27.5,30.17,ESE,110,5.0,5.0,74,0.00,,,0.01,332,Wunderground v.1.15,2013-02-07 17:40:00,
2013-02-07 12:50:00,35.1,27.6,30.16,East,101,4.0,9.0,74,0.00,,,0.01,357,Wunderground v.1.15,2013-02-07 17:50:00,
2013-02-07 12:55:00,35.2,27.7,30.16,East,84,5.0,5.0,74,0.00,,,0.01,413,Wunderground v.1.15,2013-02-07 17:55:00,
2013-02-07 13:05:00,35.7,27.9,30.15,SE,137,6.0,9.0,73,0.00,,,0.01,288,Wunderground v.1.15,2013-02-07 18:05:00,
2013-02-07 13:15:00,35.5,28.0,30.15,ENE,61,7.0,7.0,74,0.00,,,0.01,283,Wunderground v.1.15,2013-02-07 18:15:00,
2013-02-07 13:20:00,35.5,28.0,30.14,SE,126,6.0,11.0,74,0.00,,,0.01,336,Wunderground v.1.15,2013-02-07 18:20:00,
2013-02-07 13:25:00,35.5,28.0,30.14,SE,142,7.0,9.0,74,0.00,,,0.01,367,Wunderground v.1.15,2013-02-07 18:25:00,
2013-02-07 13:30:00,35.7,28.2,30.14,SE,127,8.0,9.0,74,0.00,,,0.01,374,Wunderground v.1.15,2013-02-07 18:30:00,
2013-02-07 13:35:00,35.9,28.4,30.15,SE,131,6.0,6.0,74,0.00,,,0.01,394,Wunderground v.1.15,2013-02-07 18:35:00,
2013-02-07 13:45:00,36.3,28.5,30.13,SE,136,6.0,9.0,73,0.00,,,0.01,533,Wunderground v.1.15,2013-02-07 18:45:00,
2013-02-07 13:55:00,36.3,28.5,30.13,East,96,7.0,7.0,73,0.00,,,0.01,352,Wunderground v.1.15,2013-02-07 18:55:00,
2013-02-07 14:05:00,36.6,28.8,30.12,SE,134,6.0,9.0,73,0.00,,,0.01,320,Wunderground v.1.15,2013-02-07 19:05:00,
2013-02-07 14:15:00,37.2,29.0,30.11,SSE,161,6.0,8.0,72,0.00,,,0.01,480,Wunderground v.1.15,2013-02-07 19:15:00,
2013-02-07 14:20:00,37.1,28.9,30.11,ESE,107,7.0,8.0,72,0.00,,,0.01,304,Wunderground v.1.15,2013-02-07 19:20:00,
2013-02-07 14:30:00,36.9,28.7,30.10,ESE,107,8.0,13.0,72,0.00,,,0.02,264,Wunderground v.1.15,2013-02-07 19:30:00,
2013-02-07 14:35:00,37.1,28.9,30.10,ESE,111,7.0,7.0,72,0.00,,,0.02,274,Wunderground v.1.15,2013-02-07 19:35:00,
2013-02-07 14:40:00,37.3,29.1,30.09,ENE,74,6.0,13.0,72,0.00,,,0.02,288,Wunderground v.1.15,2013-02-07 19:40:00,
2013-02-07 14:45:00,37.3,29.1,30.09,SSE,150,7.0,13.0,72,0.00,,,0.02,267,Wunderground v.1.15,2013-02-07 19:45:00,
2013-02-07 14:50:00,37.4,28.9,30.09,SE,128,7.0,13.0,71,0.00,,,0.03,260,Wunderground v.1.15,2013-02-07 19:50:00,
2013-02-07 14:55:00,37.4,28.9,30.09,ENE,61,8.0,8.0,71,0.00,,,0.03,243,Wunderground v.1.15,2013-02-07 19:55:00,
2013-02-07 15:05:00,37.5,29.3,30.09,SE,143,6.0,6.0,72,0.00,,,0.03,311,Wunderground v.1.15,2013-02-07 20:05:00,
2013-02-07 15:10:00,37.8,29.2,30.08,East,94,6.0,7.0,71,0.00,,,0.03,269,Wunderground v.1.15,2013-02-07 20:10:00,
2013-02-07 15:20:00,37.6,29.0,30.07,East,88,8.0,10.0,71,0.00,,,0.04,243,Wunderground v.1.15,2013-02-07 20:20:00,
2013-02-07 15:25:00,37.7,29.5,30.07,ESE,104,8.0,8.0,72,0.00,,,0.04,355,Wunderground v.1.15,2013-02-07 20:25:00,
2013-02-07 15:30:00,38.1,29.9,30.07,SE,140,7.0,13.0,72,0.00,,,0.04,503,Wunderground v.1.15,2013-02-07 20:30:00,
2013-02-07 15:35:00,38.5,29.9,30.07,ENE,71,7.0,14.0,71,0.00,,,0.04,359,Wunderground v.1.15,2013-02-07 20:35:00,
2013-02-07 15:40:00,38.4,29.8,30.06,SE,141,8.0,14.0,71,0.00,,,0.04,232,Wunderground v.1.15,2013-02-07 20:40:00,
2013-02-07 15:50:00,38.4,29.8,30.06,SE,127,9.0,14.0,71,0.00,,,0.05,360,Wunderground v.1.15,2013-02-07 20:50:00,
2013-02-07 15:55:00,38.3,29.7,30.06,SE,132,9.0,9.0,71,0.00,,,0.05,197,Wunderground v.1.15,2013-02-07 20:55:00,
2013-02-07 16:05:00,37.9,29.7,30.06,ENE,76,9.0,9.0,72,0.00,,,0.05,165,Wunderground v.1.15,2013-02-07 21:05:00,
2013-02-07 16:15:00,37.8,29.9,30.05,ESE,111,7.0,7.0,73,0.00,,,0.05,156,Wunderground v.1.15,2013-02-07 21:15:00,
2013-02-07 16:20:00,37.8,29.9,30.05,ENE,63,7.0,8.0,73,0.00,,,0.05,120,Wunderground v.1.15,2013-02-07 21:20:00,
2013-02-07 16:25:00,37.8,29.9,30.05,ESE,105,8.0,8.0,73,0.00,,,0.06,128,Wunderground v.1.15,2013-02-07 21:25:00,
2013-02-07 16:30:00,37.8,29.9,30.05,ESE,111,8.0,14.0,73,0.00,,,0.06,149,Wunderground v.1.15,2013-02-07 21:30:00,
2013-02-07 16:35:00,37.7,29.5,30.04,SE,134,8.0,14.0,72,0.00,,,0.06,158,Wunderground v.1.15,2013-02-07 21:35:00,
2013-02-07 16:40:00,37.7,29.5,30.04,SSE,163,9.0,14.0,72,0.00,,,0.06,121,Wunderground v.1.15,2013-02-07 21:40:00,
2013-02-07 16:45:00,37.5,29.6,30.04,SE,146,9.0,9.0,73,0.00,,,0.06,84,Wunderground v.1.15,2013-02-07 21:45:00,
2013-02-07 16:55:00,37.3,29.8,30.03,East,90,7.0,7.0,74,0.00,,,0.06,58,Wunderground v.1.15,2013-02-07 21:55:00,
2013-02-07 17:05:00,37.1,29.6,30.04,SE,142,8.0,9.0,74,0.00,,,0.06,40,Wunderground v.1.15,2013-02-07 22:05:00,
2013-02-07 17:10:00,36.9,29.4,30.03,ESE,121,8.0,9.0,74,0.00,,,0.06,32,Wunderground v.1.15,2013-02-07 22:10:00,
2013-02-07 17:15:00,36.7,29.2,30.03,ESE,103,8.0,8.0,74,0.00,,,0.06,30,Wunderground v.1.15,2013-02-07 22:15:00,
2013-02-07 17:30:00,35.9,28.7,30.03,ESE,117,8.0,17.0,75,0.00,,,0.07,21,Wunderground v.1.15,2013-02-07 22:30:00,
2013-02-07 17:40:00,35.2,28.7,30.03,SE,128,7.0,17.0,77,0.00,,,0.07,9,Wunderground v.1.15,2013-02-07 22:40:00,
2013-02-07 17:50:00,34.6,28.4,30.03,ESE,117,6.0,17.0,78,0.00,,,0.07,0,Wunderground v.1.15,2013-02-07 22:50:00,
2013-02-07 17:55:00,34.3,28.2,30.03,SE,128,6.0,6.0,78,0.00,,,0.07,0,Wunderground v.1.15,2013-02-07 22:55:00,
2013-02-07 18:05:00,34.0,27.9,30.03,East,90,7.0,7.0,78,0.00,,,0.07,0,Wunderground v.1.15,2013-02-07 23:05:00,
2013-02-07 18:15:00,33.7,27.9,30.03,SSE,149,6.0,6.0,79,0.00,,,0.07,0,Wunderground v.1.15,2013-02-07 23:15:00,
2013-02-07 18:20:00,33.5,28.0,30.03,SE,146,7.0,8.0,80,0.00,,,0.07,0,Wunderground v.1.15,2013-02-07 23:20:00,
2013-02-07 18:30:00,33.3,27.8,30.03,SE,125,6.0,17.0,80,0.00,,,0.07,0,Wunderground v.1.15,2013-02-07 23:30:00,
2013-02-07 18:35:00,33.2,27.7,30.03,ESE,109,5.0,5.0,80,0.00,,,0.07,0,Wunderground v.1.15,2013-02-07 23:35:00,
2013-02-07 18:40:00,33.1,27.9,30.03,SE,140,5.0,9.0,81,0.00,,,0.07,0,Wunderground v.1.15,2013-02-07 23:40:00,
2013-02-07 18:45:00,32.9,27.7,30.03,ESE,114,7.0,7.0,81,0.00,,,0.07,0,Wunderground v.1.15,2013-02-07 23:45:00,
2013-02-07 19:00:00,32.6,27.4,30.02,ESE,104,6.0,6.0,81,0.00,,,0.08,0,Wunderground v.1.15,2013-02-08 00:00:00,
2013-02-07 19:05:00,32.4,26.9,30.01,ESE,119,7.0,7.0,80,0.00,,,0.08,0,Wunderground v.1.15,2013-02-08 00:05:00,
2013-02-07 19:15:00,32.3,26.8,30.02,SSE,149,7.0,12.0,80,0.00,,,0.08,0,Wunderground v.1.15,2013-02-08 00:15:00,
2013-02-07 19:20:00,32.1,26.6,30.01,East,88,6.0,7.0,80,0.00,,,0.08,0,Wunderground v.1.15,2013-02-08 00:20:00,
2013-02-07 19:30:00,32.0,26.2,30.01,ESE,110,7.0,7.0,79,0.00,,,0.08,0,Wunderground v.1.15,2013-02-08 00:30:00,
2013-02-07 19:35:00,32.0,26.5,29.99,ESE,102,8.0,8.0,80,0.00,,,0.08,0,Wunderground v.1.15,2013-02-08 00:35:00,
2013-02-07 19:45:00,31.9,26.4,30.00,East,96,7.0,15.0,80,0.00,,,0.08,0,Wunderground v.1.15,2013-02-08 00:45:00,
2013-02-07 19:55:00,31.7,26.2,30.00,SE,144,6.0,6.0,80,0.00,,,0.08,0,Wunderground v.1.15,2013-02-08 00:55:00,
2013-02-07 20:05:00,31.7,26.2,30.00,NNE,32,7.0,7.0,80,0.00,,,0.08,0,Wunderground v.1.15,2013-02-08 01:05:00,
2013-02-07 20:15:00,31.5,26.0,30.00,ESE,122,7.0,8.0,80,0.00,,,0.08,0,Wunderground v.1.15,2013-02-08 01:15:00,
2013-02-07 20:20:00,31.4,25.9,29.99,East,96,8.0,11.0,80,0.00,,,0.08,0,Wunderground v.1.15,2013-02-08 01:20:00,
2013-02-07 20:25:00,31.4,25.6,29.99,SE,124,9.0,9.0,79,0.00,,,0.08,0,Wunderground v.1.15,2013-02-08 01:25:00,
2013-02-07 20:30:00,31.4,25.9,29.98,ESE,105,7.0,15.0,80,0.00,,,0.08,0,Wunderground v.1.15,2013-02-08 01:30:00,
2013-02-07 20:35:00,31.4,25.6,29.98,East,100,6.0,15.0,79,0.00,,,0.08,0,Wunderground v.1.15,2013-02-08 01:35:00,
2013-02-07 20:40:00,31.3,25.5,29.97,ESE,120,7.0,15.0,79,0.00,,,0.08,0,Wunderground v.1.15,2013-02-08 01:40:00,
2013-02-07 20:50:00,31.3,25.5,29.98,SE,128,6.0,15.0,79,0.00,,,0.08,0,Wunderground v.1.15,2013-02-08 01:50:00,
2013-02-07 20:55:00,31.3,25.5,29.98,ENE,66,6.0,6.0,79,0.00,,,0.08,0,Wunderground v.1.15,2013-02-08 01:55:00,
2013-02-07 21:05:00,31.3,25.5,29.97,East,97,6.0,6.0,79,0.00,,,0.08,0,Wunderground v.1.15,2013-02-08 02:05:00,
2013-02-07 21:10:00,31.3,25.5,29.98,ESE,115,6.0,6.0,79,0.00,,,0.08,0,Wunderground v.1.15,2013-02-08 02:10:00,
2013-02-07 21:15:00,31.4,25.6,29.98,ENE,61,6.0,6.0,79,0.00,,,0.08,0,Wunderground v.1.15,2013-02-08 02:15:00,
2013-02-07 21:25:00,31.4,25.6,29.96,East,100,6.0,8.0,79,0.00,,,0.08,0,Wunderground v.1.15,2013-02-08 02:25:00,
2013-02-07 21:30:00,31.4,25.6,29.97,ENE,73,6.0,10.0,79,0.00,,,0.08,0,Wunderground v.1.15,2013-02-08 02:30:00,
2013-02-07 21:35:00,31.4,25.6,29.96,ENE,61,6.0,20.0,79,0.00,,,0.08,0,Wunderground v.1.15,2013-02-08 02:35:00,
2013-02-07 21:45:00,31.4,25.6,29.94,East,83,6.0,20.0,79,0.00,,,0.09,0,Wunderground v.1.15,2013-02-08 02:45:00,
2013-02-07 21:50:00,31.4,25.6,29.94,East,81,7.0,20.0,79,0.00,,,0.09,0,Wunderground v.1.15,2013-02-08 02:50:00,
2013-02-07 22:00:00,31.5,25.7,29.96,NE,52,4.0,4.0,79,0.00,,,0.09,0,Wunderground v.1.15,2013-02-08 03:00:00,
2013-02-07 22:05:00,31.5,25.7,29.96,ENE,77,3.0,6.0,79,0.00,,,0.09,0,Wunderground v.1.15,2013-02-08 03:05:00,
2013-02-07 22:10:00,31.6,25.8,29.97,East,94,4.0,7.0,79,0.00,,,0.09,0,Wunderground v.1.15,2013-02-08 03:10:00,
2013-02-07 22:15:00,31.6,25.8,29.96,ENE,69,4.0,7.0,79,0.00,,,0.09,0,Wunderground v.1.15,2013-02-08 03:15:00,
2013-02-07 22:25:00,31.7,25.9,29.96,East,82,4.0,5.0,79,0.00,,,0.09,0,Wunderground v.1.15,2013-02-08 03:25:00,
2013-02-07 22:34:00,31.6,25.8,29.95,NE,53,4.0,14.0,79,0.00,,,0.09,0,Wunderground v.1.15,2013-02-08 03:34:00,
2013-02-07 22:40:00,31.5,26.0,29.95,ENE,75,5.0,5.0,80,0.00,,,0.09,0,Wunderground v.1.15,2013-02-08 03:40:00,
2013-02-07 22:45:00,31.5,26.0,29.94,ESE,114,5.0,14.0,80,0.00,,,0.09,0,Wunderground v.1.15,2013-02-08 03:45:00,
2013-02-07 22:50:00,31.5,26.0,29.94,East,82,5.0,5.0,80,0.00,,,0.09,0,Wunderground v.1.15,2013-02-08 03:50:00,
2013-02-07 22:55:00,31.5,26.0,29.93,NE,34,5.0,5.0,80,0.00,,,0.09,0,Wunderground v.1.15,2013-02-08 03:55:00,
2013-02-07 23:05:00,31.4,26.2,29.94,ENE,74,3.0,7.0,81,0.00,,,0.09,0,Wunderground v.1.15,2013-02-08 04:05:00,
2013-02-07 23:15:00,31.4,26.2,29.93,ENE,71,5.0,5.0,81,0.00,,,0.09,0,Wunderground v.1.15,2013-02-08 04:15:00,
2013-02-07 23:25:00,31.2,26.6,29.92,ENE,57,4.0,6.0,83,0.00,,,0.09,0,Wunderground v.1.15,2013-02-08 04:25:00,
2013-02-07 23:35:00,30.4,27.0,29.91,ENE,78,6.0,6.0,87,0.00,,,0.09,0,Wunderground v.1.15,2013-02-08 04:35:00,
2013-02-07 23:45:00,30.2,27.3,29.90,ENE,63,6.0,9.0,89,0.00,,,0.09,0,Wunderground v.1.15,2013-02-08 04:45:00,
2013-02-07 23:55:00,30.2,27.3,29.90,SE,128,5.0,8.0,89,0.00,,,0.09,0,Wunderground v.1.15,2013-02-08 04:55:00,